Regional Weather Roundup
Issued by NWS

Home | Current Version | Previous Version | Text Only | Print | Product List | Glossary Off
Versions: 1 2 3 4 5 6 7 8 9 10 11 12 13 14 15 16 17 18 19 20 21 22 23 24 25 26 27

000
ASUS45 KCYS 250210
RWRWY

WYOMING REGIONAL WEATHER ROUNDUP
NATIONAL WEATHER SERVICE CHEYENNE WY
700 PM MST SAT FEB 24 2018

NOTE:  "FAIR" INDICATES FEW OR NO CLOUDS BELOW 12,000 FEET
WITH NO SIGNIFICANT WEATHER AND/OR OBSTRUCTIONS TO VISIBILITY.

WYZ001-250300-
YELLOWSTONE NATIONAL PARK

CITY           SKY/WX    TMP DP  RH WIND       PRES   REMARKS
LK YELLOWSTONE   N/A      9   4  80 CALM      29.71S
W YELLOWSTONE  NOT AVBL

$$
WYZ002>013-054>058-071-098>099-250300-
NORTHERN WYOMING

CITY           SKY/WX    TMP DP  RH WIND       PRES   REMARKS
JACKSON        LGT SNOW  16  12  84 S14       29.79R FOG     WCI   2
CODY           FAIR      25   2  37 VRB6G18   29.73R WCI  18
GREYBULL       FAIR      13   7  77 E7        29.76R WCI   3
WORLAND        FAIR      17   7  64 SE15      29.74R WCI   2
SHERIDAN       FAIR      12   1  61 S6        29.70R WCI   3
BUFFALO        FAIR      18   0  45 CALM      29.68S
GILLETTE       FAIR      18   2  49 SW15      29.69R WCI   4
HULETT         FAIR      21   9  58 MISG      29.68S
NEWCASTLE      FAIR      18   5  57 N5        29.73R WCI  11

$$
WYZ014>020-022>026-101>103-250300-
CENTRAL WYOMING

CITY           SKY/WX    TMP DP  RH WIND       PRES   REMARKS
BIG PINEY      CLOUDY    13   4  67 W9        29.79S WCI   1
PINEDALE       CLOUDY    12   5  73 CALM      29.80R
DUBOIS           N/A    N/A N/A N/A MISG        N/A
LANDER         FAIR      24   1  36 NW9       29.72R WCI  14
RIVERTON       FAIR      23   1  38 NW5       29.73S WCI  17
CASPER         FAIR      18   9  68 SW21      29.75R WCI   1
DOUGLAS        FAIR      19   8  62 W9        29.75R WCI   8

$$
WYZ021-027>030-104>119-250300-
SOUTHERN WYOMING

CITY           SKY/WX    TMP DP  RH WIND       PRES   REMARKS
EVANSTON       CLOUDY    14  10  84 SW10      29.84R WCI   1
ROCK SPRINGS   CLOUDY    15  11  83 SW13      29.84R WCI   1
DIXON          CLOUDY    19   7  60 SW8       29.89R WCI   8
RAWLINS        CLOUDY    15  10  80 SW17G26   29.80R WCI  -1
SARATOGA       CLOUDY    18   5  57 SW20G26   29.81R WCI   1
LARAMIE        MOCLDY    15   1  53 W21       29.74R WCI  -2
CHEYENNE       FAIR      21   2  43 W18G25    29.76R WCI   6
TORRINGTON     FAIR      24  11  57 W12       29.77R WCI  13
PINE BLUFFS    FAIR      19   7  58 NW10      29.79S WCI   8

$$




USA.gov is the U.S. government's official web portal to all federal, state and local government web resources and services.